{"data":{"norad_id":56338,"intl_designator":"2023-058X","name":"STARLINK-5554","alt_names":[],"object_type":"PAYLOAD","status":"ACTIVE","operator":null,"country":"US","launch_date":"2023-04-27","launch_site_code":"AFWTR","launch_vehicle":null,"mission":null,"orbit_class":"UNKNOWN","rcs_meters":null,"size_class":null,"mass_kg":null,"dimensions":null,"purposes":["comms"],"wikipedia_slug":null,"has_3d_model":false,"image_url":null,"decayed_at":null,"tle_current":{"epoch":"2026-05-24T23:09:41.291136Z","epoch_age_seconds":85268,"freshness":"FRESH","line1":"1 56338U 23058X   26144.96506124 -.00000529  00000+0 -32582-4 0  9994","line2":"2 56338  97.4473 144.9626 0002619 110.5082 249.6426 15.05658073169603","mean_motion":15.05658073,"eccentricity":0.0002619,"inclination_deg":97.4473,"raan_deg":144.9626,"arg_perigee_deg":110.5082,"mean_anomaly_deg":249.6426,"bstar":-3.2582e-5,"rev_number":16960,"period_min":95.639244116748,"perigee_km":547.67204645652,"apogee_km":551.30073558873,"semimajor_km":6927.6233910226,"source":"CELESTRAK","updated_at":"2026-05-25T13:38:18.004137Z"}}}